Regional Weather Roundup
Issued by NWS

Home | Current Version | Previous Version | Graphics & Text | Print | Product List | Glossary On
Versions: 1 2 3 4 5 6 7 8 9 10 11 12 13 14 15 16 17 18 19 20 21 22 23 24 25 26 27 28 29 30 31 32 33 34 35 36 37 38 39 40 41 42 43 44 45 46 47 48 49 50
000
ASUS43 KFSD 290902
RWRSD

WEATHER ROUNDUP FOR SOUTH DAKOTA
NATIONAL WEATHER SERVICE SIOUX FALLS SD
400 AM CDT FRI AUG 29 2014

NOTE: "FAIR" INDICATES FEW OR NO CLOUDS BELOW 12,000 FEET WITH NO
SIGNIFICANT WEATHER AND/OR OBSTRUCTIONS TO VISIBILITY.


SDZ001>005-009-010-012>017-291000-
NORTHWEST AND NORTH CENTRAL SOUTH DAKOTA

CITY           SKY/WX    TMP DP  RH WIND       PRES   REMARKS
BUFFALO          N/A     63  52  67 W8        29.80R
FAITH            N/A     60  60 100 S9        29.84S
MOBRIDGE       CLOUDY    65  65 100 S6        29.79S
$$

SDZ012>016-024>037-041>051-057-063-072>074-291000-
SOUTHWEST AND SOUTH CENTRAL SOUTH DAKOTA

CITY           SKY/WX    TMP DP  RH WIND       PRES   REMARKS
RAPID CTY ARPT CLEAR     59  52  77 W9        29.89S
PIERRE         FOG       65  65 100 NW7       29.80S VSB 1/4
CUSTER         CLEAR     50  44  80 NW5       30.04S
ELLSWORTH AFB  CLEAR     57  52  84 W8        29.89R
PHILIP         PTCLDY    59  56  89 W6        29.84S
PINE RIDGE     CLEAR     49  48  97 CALM      29.92S
WINNER         CLOUDY    65  64  97 W5        29.83S
$$

SDZ004>011-016>023-039-040-291000-
NORTHEAST SOUTH DAKOTA

CITY           SKY/WX    TMP DP  RH WIND       PRES   REMARKS
ABERDEEN       CLOUDY    65  65 100 N3        29.79S
WATERTOWN      FOG       66  66 100 CALM      29.79F VSB 3/4
SISSETON         N/A     65  65 100 CALM      29.78S
$$

SDZ017-020-022-023-036>040-048>070-291000-
SOUTHEAST SOUTH DAKOTA

CITY           SKY/WX    TMP DP  RH WIND       PRES   REMARKS
SIOUX FALLS    CLOUDY    72  70  93 SW5       29.78R
HURON          CLOUDY    69  67  93 E3        29.77S FOG
CHAMBERLAIN    CLOUDY    67  66  99 W3        29.79F
MITCHELL       FOG       69  69 100 W5        29.77R VSB 3/4
YANKTON        CLOUDY    66  66 100 SW6       29.77F
$$

ABBREVIATIONS USED IN REMARKS
   TC - TEMPERATURE IN CELSIUS
  WCI - WIND CHILL INDEX
   HX - HEAT INDEX
  VSB - VISIBILITY




USA.gov is the U.S. government's official web portal to all federal, state and local government web resources and services.